Wind_Speed
48 48 49 49 49 50 50 50 50 50 50 52 55 57 59 61 63 65 67 69 71 72 74 75 76 77 78 79 80 81 81 82 82 82 82 81 80 80
49 49 49 50 50 50 51 52 54 55 55 56 59 62 64 66 69 71 72 74 76 77 78 80 80 81 81 82 82 82 83 84 84 85 85 85 84 83
49 50 50 51 51 52 54 55 57 59 60 61 64 67 69 71 73 75 76 77 78 79 80 80 80 80 80 80 80 81 81 81 81 81 81 82 83 84
50 51 51 52 53 55 57 59 61 63 65 66 68 71 73 74 76 77 78 79 79 78 77 76 75 75 75 75 74 74 74 75 76 76 77 78 78 79
51 52 53 55 56 58 60 63 65 67 70 72 72 73 74 76 77 77 77 76 74 73 72 71 70 69 68 67 67 67 67 67 67 68 69 70 71 72
53 54 56 58 59 62 64 66 69 70 73 74 75 74 75 76 77 76 73 70 68 68 67 65 64 63 63 62 62 61 60 59 58 57 57 58 59 61
55 57 59 61 63 65 68 69 71 73 75 76 76 75 75 75 74 71 68 66 64 64 62 60 59 58 58 56 54 52 50 48 46 46 45 45 46 48
58 60 62 64 66 68 69 71 74 76 77 77 76 75 74 71 69 67 66 64 61 59 58 55 55 52 50 48 45 42 40 38 37 36 36 36 37 38
61 63 65 67 68 70 71 73 75 77 77 77 76 73 70 67 67 65 63 60 57 54 53 50 47 45 42 39 37 35 34 32 30 29 28 29 30 31
64 66 67 69 70 72 73 74 75 75 75 75 73 69 67 65 64 62 59 56 52 50 48 43 40 37 34 33 32 30 28 26 25 24 23 24 24 25
67 68 69 71 72 74 75 75 74 73 73 71 69 66 64 62 60 58 54 51 46 42 40 38 34 31 30 29 28 25 23 22 21 20 20 19 19 20
68 69 71 73 73 74 75 75 74 72 70 67 64 62 59 56 54 51 48 44 40 36 34 33 31 29 26 25 24 22 21 19 19 18 17 17 17 17
69 70 71 73 73 74 74 74 72 70 66 63 59 57 54 51 48 45 42 39 36 33 32 30 28 27 24 20 21 20 18 17 16 15 15 16 16 17
70 70 71 72 72 73 72 71 69 66 63 59 56 52 49 45 42 40 37 35 33 31 30 28 25 23 20 18 18 18 16 15 14 14 14 15 15 15
70 70 71 71 71 70 68 67 65 62 59 55 51 47 44 40 37 35 33 32 30 29 27 25 22 19 18 16 15 14 14 13 12 12 12 12 12 13
71 71 72 71 70 68 65 63 60 57 53 49 45 41 38 36 34 32 31 29 27 26 24 22 19 17 16 15 14 13 12 11 11 11 11 11 11 11
72 72 71 69 67 65 62 58 54 50 46 43 39 36 34 33 31 30 28 26 24 23 21 19 17 16 14 13 12 11 11 10 10 9 9 10 10 10
72 70 68 66 64 61 57 52 48 44 40 37 35 33 31 29 28 26 24 23 21 19 17 16 16 14 13 12 11 10 10 9 8 8 7 8 8 8
69 67 65 63 60 55 51 46 43 39 36 34 32 30 28 26 24 23 22 20 18 16 15 15 14 13 12 11 10 10 9 8 8 7 7 7 7 7
65 63 61 58 54 50 46 42 39 36 33 31 29 27 25 23 22 20 19 17 16 15 14 13 12 12 11 10 10 9 9 8 7 7 7 6 6 6
61 59 56 52 49 46 42 38 35 32 29 28 26 24 22 21 20 19 17 15 14 13 13 12 11 11 10 9 9 8 8 7 7 7 7 7 7 7
56 53 50 47 44 41 37 34 30 28 26 25 23 21 20 19 18 16 15 14 13 13 12 11 10 10 9 9 8 8 7 7 7 7 7 6 6 6
51 48 45 43 40 36 33 29 26 25 24 22 21 19 18 17 16 14 14 13 13 12 11 11 10 9 9 9 8 8 7 7 6 6 6 6 6 6
Wind_Direction
303 303 303 303 303 303 302 302 301 300 300 300 299 299 298 297 296 295 294 292 291 290 288 287 285 284 282 280 279 277 275 273 272 271 269 268 267 266
303 304 304 303 303 303 303 302 302 302 301 301 301 300 299 299 297 296 295 294 293 291 290 288 287 285 283 281 280 278 276 274 272 270 269 267 266 265
304 304 304 303 303 303 303 303 303 303 303 303 302 302 301 300 299 298 297 296 295 294 292 290 288 287 285 283 281 279 277 275 273 271 269 267 265 263
304 303 303 304 304 304 304 305 305 304 304 304 304 303 302 301 300 299 299 298 296 295 293 292 290 289 288 286 284 282 280 277 275 272 269 267 265 263
304 304 304 304 304 305 305 306 306 306 306 306 306 305 304 303 302 301 300 299 298 296 295 294 292 291 290 288 287 285 283 280 277 274 271 268 265 263
304 304 304 304 305 305 306 306 306 306 307 307 306 306 305 304 303 302 300 300 299 298 297 296 294 293 292 290 289 287 285 283 280 276 272 269 266 263
304 304 304 305 305 306 307 307 307 308 308 307 307 306 306 305 303 302 302 301 300 299 298 297 296 295 294 293 291 289 287 284 280 277 273 269 265 262
304 304 305 305 306 307 307 308 308 309 308 308 307 307 306 305 304 304 303 303 301 299 299 298 298 297 296 295 293 291 288 286 282 278 274 271 267 263
304 305 305 306 306 307 308 308 309 309 308 308 308 308 307 305 305 305 304 304 303 302 300 301 299 298 297 295 294 292 289 287 284 281 277 272 267 263
305 306 306 307 307 307 308 309 309 309 308 308 308 308 307 306 306 306 306 305 305 304 303 303 301 300 298 297 295 293 290 288 285 282 278 274 269 264
306 306 307 307 308 308 308 309 310 309 308 308 308 307 307 307 307 307 307 307 307 305 304 304 303 301 300 298 296 293 290 288 285 282 278 273 268 263
307 307 308 308 308 309 309 310 309 309 308 308 307 307 307 307 307 307 307 308 307 307 305 305 305 303 301 298 295 293 290 287 284 280 276 271 268 265
308 308 308 308 309 309 309 310 309 309 309 308 307 307 307 306 306 306 307 307 307 307 306 306 306 305 303 297 294 293 290 286 283 278 274 271 269 267
309 309 309 309 309 310 310 310 310 309 309 308 307 307 306 306 305 306 306 306 306 307 307 307 306 305 303 300 296 293 290 287 282 277 275 272 269 266
310 310 310 310 310 310 310 310 310 309 309 308 307 306 305 305 304 305 305 305 305 306 307 306 306 305 303 301 299 295 291 288 281 278 276 271 267 264
310 310 311 310 310 310 310 310 309 309 308 307 307 306 305 304 304 304 304 305 305 305 305 305 305 305 304 301 299 296 293 288 283 278 273 269 267 263
310 311 311 311 310 310 310 310 309 308 307 307 306 305 304 304 304 303 303 303 303 303 302 302 303 304 302 298 297 296 295 291 287 281 274 270 265 259
311 312 311 311 311 311 310 310 309 308 307 306 305 305 304 304 303 303 302 303 302 301 300 300 300 300 299 295 293 293 295 292 288 281 275 269 264 257
311 312 311 311 312 312 311 309 308 307 306 305 305 304 304 304 303 302 302 302 301 299 298 298 297 296 295 293 289 288 289 289 285 277 272 267 261 254
311 311 312 312 312 311 310 309 307 306 305 305 304 303 304 304 303 302 302 300 299 299 298 297 295 294 292 290 287 284 282 281 278 271 266 260 255 249
311 312 312 312 312 311 310 308 307 305 304 304 303 303 304 304 303 301 300 298 297 297 297 296 294 293 289 286 285 283 278 275 272 267 262 256 251 247
312 313 313 313 313 312 311 309 307 305 304 304 303 302 303 303 302 300 298 296 296 296 295 294 292 290 285 281 280 279 278 274 269 262 257 252 245 241
313 313 313 313 313 312 311 309 306 305 305 304 302 301 301 302 299 296 296 295 295 294 293 293 291 288 282 278 275 275 274 272 268 258 249 241 235 231
Height
5678 5673 5669 5664 5659 5654 5649 5645 5641 5638 5636 5630 5623 5616 5610 5604 5597 5591 5585 5578 5572 5566 5560 5555 5550 5545 5541 5537 5534 5531 5529 5527 5526 5526 5526 5526 5528 5529
5667 5662 5657 5652 5647 5642 5637 5632 5627 5622 5620 5615 5607 5600 5592 5585 5578 5570 5563 5556 5549 5542 5535 5529 5523 5517 5512 5508 5504 5501 5499 5497 5496 5496 5496 5497 5499 5501
5656 5651 5646 5640 5635 5629 5624 5618 5612 5606 5602 5599 5590 5582 5573 5565 5557 5548 5540 5532 5524 5516 5508 5501 5494 5488 5483 5479 5474 5471 5469 5467 5466 5465 5466 5467 5468 5472
5645 5639 5633 5628 5622 5616 5610 5604 5597 5589 5583 5579 5573 5563 5553 5543 5535 5526 5517 5508 5499 5491 5483 5475 5468 5462 5456 5451 5446 5443 5440 5438 5437 5436 5437 5439 5441 5441
5633 5627 5621 5615 5609 5602 5595 5588 5580 5573 5564 5557 5552 5542 5532 5521 5512 5504 5495 5485 5475 5467 5459 5452 5445 5438 5433 5427 5422 5418 5415 5413 5411 5411 5410 5411 5413 5415
5620 5614 5608 5601 5594 5587 5580 5572 5563 5555 5546 5537 5530 5522 5512 5500 5489 5480 5473 5465 5455 5445 5438 5431 5424 5418 5411 5406 5401 5397 5393 5390 5388 5387 5387 5388 5389 5391
5608 5601 5594 5587 5579 5571 5563 5554 5545 5536 5527 5517 5509 5500 5491 5479 5469 5459 5451 5445 5437 5426 5419 5413 5405 5399 5393 5387 5382 5378 5375 5372 5370 5369 5369 5370 5371 5373
5595 5587 5580 5572 5563 5555 5546 5537 5527 5516 5506 5497 5488 5479 5470 5459 5449 5440 5431 5424 5420 5411 5401 5397 5389 5383 5377 5372 5367 5363 5360 5358 5356 5355 5355 5356 5357 5358
5580 5573 5565 5556 5547 5538 5529 5520 5509 5497 5486 5476 5468 5458 5449 5440 5430 5423 5414 5406 5400 5393 5385 5381 5374 5368 5364 5359 5355 5352 5350 5348 5346 5345 5345 5345 5345 5347
5565 5557 5548 5539 5529 5520 5511 5503 5492 5481 5469 5458 5448 5440 5431 5422 5412 5404 5396 5390 5385 5378 5369 5365 5362 5357 5353 5349 5345 5343 5341 5339 5338 5337 5337 5337 5337 5338
5550 5540 5530 5522 5513 5502 5493 5484 5475 5464 5452 5441 5431 5422 5414 5405 5396 5388 5382 5376 5371 5366 5358 5354 5351 5347 5345 5341 5337 5335 5333 5332 5332 5331 5330 5330 5331 5332
5534 5524 5513 5503 5494 5483 5473 5464 5455 5446 5436 5426 5417 5408 5399 5391 5383 5375 5369 5363 5359 5355 5350 5345 5342 5338 5337 5334 5330 5329 5327 5327 5326 5326 5325 5325 5326 5327
5516 5507 5496 5485 5475 5465 5454 5444 5435 5426 5418 5410 5402 5394 5386 5379 5372 5365 5359 5354 5349 5346 5342 5338 5334 5331 5328 5327 5325 5323 5322 5321 5321 5321 5321 5321 5321 5322
5498 5489 5479 5468 5457 5447 5436 5426 5417 5408 5400 5393 5386 5379 5373 5367 5361 5356 5350 5346 5341 5338 5334 5330 5327 5325 5322 5321 5320 5318 5317 5317 5317 5317 5317 5317 5317 5318
5480 5470 5461 5450 5440 5430 5420 5410 5400 5392 5384 5378 5371 5366 5360 5355 5351 5346 5342 5338 5334 5330 5327 5324 5321 5319 5318 5316 5315 5314 5313 5313 5313 5313 5313 5313 5314 5314
5462 5453 5443 5433 5423 5413 5404 5395 5386 5377 5370 5364 5359 5354 5349 5345 5341 5338 5334 5331 5328 5324 5321 5318 5316 5315 5314 5312 5311 5310 5310 5309 5309 5309 5309 5310 5310 5311
5444 5436 5425 5415 5406 5397 5389 5380 5372 5365 5358 5353 5348 5344 5340 5336 5333 5330 5327 5324 5321 5319 5316 5314 5312 5311 5310 5309 5308 5307 5307 5307 5306 5306 5306 5307 5307 5308
5425 5416 5407 5398 5389 5381 5373 5366 5359 5353 5347 5343 5339 5335 5332 5328 5325 5322 5320 5318 5315 5313 5311 5310 5308 5307 5307 5306 5305 5305 5304 5304 5304 5304 5304 5304 5305 5305
5408 5399 5390 5381 5373 5365 5358 5353 5347 5342 5338 5334 5330 5327 5324 5321 5318 5316 5314 5312 5310 5309 5307 5306 5305 5304 5303 5302 5302 5302 5302 5301 5301 5302 5302 5302 5302 5303
5392 5383 5375 5366 5359 5352 5346 5341 5336 5332 5328 5325 5322 5319 5317 5315 5312 5310 5309 5307 5306 5304 5303 5302 5301 5301 5300 5300 5299 5300 5299 5299 5299 5299 5300 5300 5300 5301
5378 5369 5361 5353 5346 5340 5334 5330 5326 5323 5320 5317 5314 5312 5310 5308 5307 5305 5304 5303 5301 5300 5299 5299 5298 5297 5297 5297 5297 5297 5297 5297 5297 5297 5298 5298 5299 5300
5364 5356 5348 5341 5335 5329 5324 5320 5317 5314 5312 5309 5308 5306 5304 5303 5301 5300 5299 5298 5298 5297 5296 5295 5295 5294 5294 5294 5294 5294 5295 5295 5295 5295 5296 5296 5297 5298
5351 5344 5337 5331 5325 5320 5316 5312 5309 5307 5305 5303 5301 5300 5299 5298 5296 5296 5295 5294 5294 5293 5293 5292 5292 5292 5291 5291 5292 5292 5292 5292 5293 5293 5294 5295 5295 5296